Location: Appeville
(49.3218°N, 1.3427°W)
Time: 06:56:40
(UTC+00:00)

Cosmos 2084 Rocket - Pass Details

Date: 08 December 2019
Orbit: 571 x 610 km, 62.8° (Epoch: 26 January)

Event Time Altitude Azimuth Distance (km) Brightness Sun altitude
Exits shadow 05:11:28 68° 180° (S) 659 3.6 -24.3°
Drops below altitude 10° 05:15:28 10° 145° (SE) 1,952 6.6 -23.6°
Sets 05:17:43 0° 144° (SE) 2,848 7.6 -23.3°
